Retour au catalogue

ONEWEB-0533

ActifCommunicationsPO
NORAD 55141·PAYLOAD·🇬🇧 United Kingdom

Lancé Jan 10, 2023 depuis Cape Canaveral Space Force Station

Loading…

Prochains Passages (prochaines 24 heures)

TLE

FraisSource: CelesTrak SupGP

Époque: Sep 14, 2026, 12:37 UTC

1 55141C 23004B   26257.52583750  .00002244  00000+0  62445-2 0  2573
2 55141  87.8990 332.9334 0002080 105.2078   5.4699 13.12441886    11

Suivez ONEWEB-0533 en temps réel avec AllMySat

Download on the App Store